RH
82 85 87 88 89 89 88 88 86 87 92 93 93 90 85 82 81 81 79 76 72 68 67 66 66 69 71 67 63 66 73 83 88 83 82 81 76 75 76 81 88 84 82 84 83 86 90 88 88 92 89 84 73 58 52 52 51 47 42 34 27 26 26 28 36 49 57 58 66 74 81 87 90 92 90 88 90 92 91 90 90 89 91 93 92
81 87 84 81 85 87 85 85 84 84 88 90 88 86 83 82 81 81 80 77 73 68 67 68 72 77 74 68 65 73 84 87 91 87 79 74 67 69 74 78 86 87 81 83 84 86 91 88 84 89 91 88 82 73 67 69 74 72 65 54 41 30 24 24 28 31 33 38 48 52 60 74 83 86 83 80 87 92 92 90 89 88 90 92 91
79 84 81 81 87 89 88 86 83 83 85 85 83 83 83 81 80 77 74 76 77 74 72 71 76 83 76 68 66 73 80 75 76 78 71 65 55 58 73 82 87 88 84 82 84 86 90 88 82 84 89 91 87 78 73 76 84 87 82 72 58 41 27 28 30 27 26 29 32 31 38 55 68 75 76 78 88 92 92 92 90 89 90 90 90
78 80 79 81 86 85 86 86 84 82 81 82 83 83 82 81 77 72 73 78 83 82 78 75 77 80 73 66 64 66 71 67 67 73 75 68 58 62 74 81 85 86 85 84 84 86 90 90 86 84 84 90 92 85 79 80 87 92 89 80 67 52 36 32 32 28 27 30 32 32 33 41 52 61 67 76 83 85 89 92 91 90 91 92 91
78 79 78 80 83 81 83 86 87 87 85 87 87 85 84 82 75 74 80 83 84 85 81 77 76 75 70 65 63 65 67 66 64 67 76 72 62 64 68 73 81 85 86 86 85 86 90 90 88 86 83 88 91 85 82 84 90 93 91 86 76 64 51 43 39 34 30 31 37 38 31 28 37 46 54 64 72 75 83 90 93 92 92 92 91
79 80 79 80 82 83 86 88 92 93 91 92 89 86 85 82 78 78 84 82 81 82 79 76 76 75 73 67 66 71 67 64 65 67 75 77 68 63 63 69 77 83 87 87 86 86 89 90 88 88 86 88 87 82 83 85 87 90 90 88 83 74 64 55 49 44 38 37 40 37 28 22 24 31 37 46 57 68 79 87 88 90 92 91 91
79 77 77 78 81 86 90 93 96 95 92 91 89 85 83 83 83 82 81 80 79 80 76 75 77 75 73 68 67 71 68 63 66 69 75 78 72 63 63 68 71 80 88 87 85 85 88 88 88 89 87 86 85 84 85 84 83 87 90 89 85 81 75 70 63 56 48 46 46 43 38 30 21 19 22 29 42 58 77 84 77 80 88 89 92
79 77 81 82 83 85 86 91 95 95 90 87 86 84 84 84 83 80 78 78 78 79 76 75 77 75 72 72 71 69 67 66 69 72 76 78 74 67 66 67 68 74 82 85 84 86 87 86 86 87 86 82 84 88 86 84 83 88 92 87 82 81 83 85 79 69 59 56 57 56 56 50 34 23 18 19 29 44 68 80 72 69 74 80 86
87 84 87 87 87 86 86 89 91 92 88 85 87 87 89 88 84 82 79 79 81 81 78 75 76 76 76 78 77 74 74 74 74 72 75 82 81 76 74 74 73 72 74 81 84 84 86 86 84 83 82 78 82 89 85 80 82 86 89 86 83 80 80 85 86 81 75 71 74 73 73 70 58 47 33 22 21 31 48 60 60 61 62 66 75
91 88 87 89 93 92 90 90 88 89 87 88 91 90 91 89 85 85 81 81 85 84 81 79 77 79 82 82 78 79 84 82 75 70 73 85 87 84 83 81 82 75 70 78 84 83 82 80 77 77 77 74 78 86 83 83 86 86 88 89 87 79 77 85 89 90 87 82 83 83 82 79 74 70 57 38 23 23 32 39 43 51 57 58 61
89 88 87 90 94 90 90 91 89 88 88 92 94 89 89 88 86 85 82 87 91 87 84 82 78 81 86 87 82 81 87 87 81 74 71 79 85 86 86 84 84 79 73 79 83 80 76 73 73 74 72 68 74 82 81 86 91 88 88 90 91 86 86 93 95 94 92 86 83 85 89 89 84 82 78 67 49 31 26 30 32 33 40 45 47
89 89 87 89 89 84 87 90 88 88 89 92 94 89 86 86 87 86 85 93 95 89 85 81 80 87 91 90 88 87 88 90 88 83 75 75 81 85 88 87 87 84 84 87 82 77 76 74 75 74 70 67 74 81 80 85 91 91 90 91 94 95 94 97 97 97 95 91 88 86 88 92 93 93 91 90 82 63 43 32 29 24 23 28 32
87 87 85 86 84 81 84 86 85 86 88 90 93 91 86 86 88 89 91 94 93 88 85 82 82 92 98 96 94 95 94 92 91 88 84 81 82 86 88 89 90 90 91 89 79 77 80 78 77 75 73 74 78 82 83 87 91 92 93 93 94 97 98 96 94 95 96 97 97 92 86 85 90 95 96 96 96 92 75 51 36 26 17 17 19
81 81 80 80 81 83 86 86 86 87 88 89 91 91 88 89 90 92 93 91 87 86 85 83 85 89 95 98 99 98 98 95 91 90 91 92 91 90 89 90 94 95 94 90 83 83 83 82 84 82 80 83 83 85 87 91 94 93 94 97 95 97 98 92 90 93 96 98 99 97 94 91 90 89 92 96 94 89 82 69 55 41 28 19 14
75 73 72 73 75 79 84 85 84 84 84 86 88 89 87 87 89 91 90 87 86 87 84 81 84 86 89 96 99 97 98 97 94 93 94 95 95 92 91 94 98 97 95 94 92 91 88 86 88 87 87 90 91 92 93 95 96 96 96 96 96 98 96 89 90 93 94 97 98 97 99 99 97 93 91 92 87 83 83 80 75 66 54 41 31
72 70 68 71 71 69 73 77 75 74 76 79 82 85 86 85 86 87 86 86 88 88 85 80 81 84 88 93 94 93 97 98 97 99 95 92 93 92 93 95 97 95 92 91 92 91 90 89 87 87 90 95 97 96 96 96 97 97 95 93 93 93 88 83 89 92 91 95 98 99 99 99 99 99 98 91 83 81 84 82 79 77 70 62 59
68 66 66 70 71 69 69 71 70 70 72 73 74 78 82 84 84 85 84 84 84 85 86 84 80 79 82 89 92 93 98 97 96 99 95 90 93 93 93 96 94 90 86 86 90 91 91 91 88 89 95 99 100 98 97 96 97 95 92 89 87 85 82 80 88 95 95 94 96 98 98 98 99 99 100 96 89 84 83 82 81 81 78 76 80
64 65 66 67 68 69 67 66 67 69 70 71 72 74 77 79 79 81 82 81 80 82 86 87 84 80 78 82 85 87 92 94 96 98 96 93 95 95 95 97 94 90 88 89 94 95 95 93 90 92 98 99 97 97 96 94 93 90 86 84 81 80 80 81 85 92 93 92 93 94 94 95 98 98 98 99 98 95 91 90 89 87 87 88 92
62 66 67 65 65 66 65 63 63 66 67 69 73 76 76 76 76 77 78 79 78 81 85 86 85 84 82 82 82 79 79 85 92 96 97 96 97 96 97 97 94 91 92 94 98 99 98 96 93 95 97 96 95 94 93 90 86 83 81 80 78 78 82 84 85 87 90 92 93 93 92 92 94 95 97 99 99 99 98 97 96 96 95 95 97
62 65 63 62 63 62 61 63 65 65 65 68 74 78 77 77 78 79 78 79 79 80 82 83 83 85 87 87 85 80 75 76 81 85 91 97 98 96 95 95 93 90 91 94 98 99 99 98 97 96 94 89 88 86 84 81 80 81 82 81 80 81 84 86 87 89 90 91 90 89 90 94 97 97 98 98 96 97 98 97 97 99 98 97 99
63 63 60 60 63 60 58 63 65 62 63 69 73 77 80 79 79 80 79 80 80 77 80 81 80 82 85 87 86 83 79 77 76 77 83 93 97 96 94 94 93 91 87 87 90 92 95 97 94 91 89 86 84 82 82 81 80 81 82 81 79 80 83 86 90 92 92 88 79 71 74 84 93 97 99 98 96 97 100 99 97 98 99 99 99
62 62 61 61 61 58 58 62 61 60 65 70 71 75 80 81 80 79 78 80 80 77 79 81 78 78 80 82 84 83 82 80 77 76 79 84 90 92 90 88 92 93 82 72 71 72 76 81 80 80 81 81 81 78 74 70 66 64 64 65 65 66 70 74 78 78 75 70 60 52 54 64 76 83 83 83 82 84 88 88 85 83 86 89 93
62 61 60 60 57 55 59 61 60 63 66 66 68 72 75 78 79 78 78 78 77 74 76 77 76 76 76 77 78 77 76 79 78 74 75 80 85 87 83 80 88 94 83 68 63 60 59 60 60 60 60 61 60 57 54 49 47 46 45 46 47 48 50 51 52 51 48 45 41 41 43 49 58 62 62 63 63 64 65 66 63 60 60 62 65
59 57 55 56 57 60 61 57 56 60 60 59 64 68 71 75 76 76 76 75 74 73 73 72 71 70 72 74 78 74 70 71 72 68 68 73 77 78 76 74 77 84 84 78 70 60 55 54 50 47 46 45 45 44 43 41 39 37 34 33 33 33 33 33 32 31 31 31 31 33 35 37 40 42 44 46 47 48 48 48 48 47 47 46 45
57 56 54 56 61 64 62 56 52 53 54 56 59 64 69 72 72 71 70 67 66 67 69 70 66 64 68 73 76 75 70 68 65 63 64 65 66 67 67 65 65 71 77 75 67 59 56 55 53 51 45 39 39 38 34 29 27 25 22 21 22 22 22 22 22 21 21 22 23 25 28 30 32 34 36 37 38 39 40 41 42 42 42 43 43
57 58 57 57 61 62 61 58 52 49 52 56 57 60 63 65 67 67 64 58 52 51 57 64 62 58 60 68 74 75 73 69 63 59 58 58 57 57 56 57 58 60 61 60 58 58 59 57 56 56 47 34 29 29 25 20 19 19 17 17 18 18 18 19 20 20 20 20 19 19 20 22 24 27 30 33 34 36 38 40 42 42 43 43 43
55 56 56 58 58 58 59 57 51 48 50 52 52 53 54 54 56 59 58 52 45 42 44 50 50 45 46 56 68 73 71 67 61 55 54 54 51 47 48 53 55 50 46 48 54 56 57 58 56 49 40 35 32 29 29 26 23 23 20 19 20 21 25 28 30 31 31 30 28 24 21 20 19 18 19 21 24 25 27 30 32 35 38 40 42
53 54 55 56 55 54 55 54 51 48 48 48 48 49 50 50 49 50 51 46 42 41 41 40 40 39 40 45 53 58 58 57 57 55 54 55 48 41 41 45 49 48 45 46 49 52 54 55 54 44 34 38 38 32 35 35 33 33 29 26 28 31 34 35 35 36 35 35 36 35 31 27 23 20 19 17 17 17 18 18 19 20 23 26 29
51 51 51 51 53 54 53 52 51 48 46 45 45 45 47 48 47 46 46 45 43 42 41 40 39 38 38 40 42 43 42 44 47 50 52 52 45 40 39 38 39 44 49 48 44 46 48 44 45 44 37 37 36 32 34 37 36 38 36 33 35 36 36 35 34 35 34 31 32 37 37 35 32 29 27 25 23 22 21 20 20 19 18 18 18
48 47 48 50 50 51 50 49 49 48 47 44 41 40 42 44 46 47 46 46 45 44 42 40 37 34 33 36 39 38 37 35 35 38 42 42 41 41 41 39 34 34 43 49 43 39 42 40 37 38 38 36 33 32 35 37 37 37 37 36 37 38 37 37 37 37 37 32 28 30 32 32 33 32 31 30 29 29 28 27 27 25 24 23 21
48 47 47 46 46 48 48 48 48 47 45 44 43 42 43 44 45 45 45 43 45 47 47 45 42 37 34 35 36 35 34 33 30 31 32 33 35 38 40 40 35 29 29 38 41 36 33 36 33 32 34 32 29 31 36 39 38 37 37 36 35 38 39 39 40 40 41 40 35 33 31 28 28 29 29 28 28 28 28 28 28 27 27 26 24
49 48 46 45 47 49 49 47 46 45 43 43 44 42 41 42 42 43 43 41 44 45 45 47 47 43 40 39 37 33 32 31 30 31 31 31 34 36 39 37 32 28 25 28 38 35 27 29 31 29 30 29 29 33 38 40 38 36 36 37 35 37 39 41 42 42 42 43 42 42 40 36 33 34 34 32 31 31 30 30 30 28 26 26 25
51 49 49 47 47 48 48 47 46 44 44 45 45 42 40 42 43 43 43 43 44 43 41 42 42 41 39 38 36 34 32 31 30 30 30 32 35 37 37 34 30 29 27 27 33 33 27 27 28 30 30 29 31 36 37 39 40 37 36 37 37 37 39 41 43 44 44 43 43 43 44 44 40 39 40 40 38 37 36 35 35 32 28 26 25
52 51 50 49 47 47 48 50 48 46 47 47 46 44 43 43 41 39 41 42 42 41 41 41 40 39 37 36 37 37 35 35 35 34 33 34 37 39 38 34 32 31 29 28 29 29 30 29 28 30 32 32 34 36 37 37 39 39 37 37 38 38 40 43 44 45 45 43 43 43 44 46 43 41 42 42 42 42 40 38 38 36 33 31 31
52 51 50 49 48 47 48 50 51 49 48 47 46 44 44 45 42 39 41 42 40 39 41 42 40 37 34 33 37 39 37 37 38 38 38 37 38 41 41 37 34 31 30 30 29 29 32 32 30 32 35 36 36 35 36 36 37 40 39 36 38 40 40 44 46 46 45 44 43 43 44 46 43 42 44 44 44 45 42 40 40 40 39 38 38
51 50 49 49 47 47 48 49 51 51 50 49 47 44 45 47 45 43 42 41 40 39 39 39 39 38 36 34 34 37 37 36 38 41 41 39 39 41 42 42 39 37 36 36 34 31 32 33 33 35 38 39 37 35 35 36 37 39 38 37 39 40 42 45 47 46 45 45 44 43 44 46 44 43 46 46 46 47 44 40 40 41 42 42 41
49 49 47 47 47 47 46 47 49 50 51 52 49 47 48 50 48 47 45 43 44 44 42 42 42 43 45 42 37 38 39 37 40 44 43 41 41 41 42 44 45 44 43 42 40 35 34 35 36 37 38 38 38 38 37 37 38 39 39 41 43 45 47 48 48 47 47 47 46 45 45 45 45 46 48 48 48 48 43 39 40 41 42 44 43
43 49 47 44 45 46 46 46 46 48 50 52 53 51 51 52 52 51 51 50 52 52 49 48 48 48 49 48 45 45 46 46 45 45 45 44 42 42 43 44 45 46 45 45 45 43 39 39 38 38 39 40 40 39 38 37 38 40 42 44 47 48 49 49 49 48 48 48 48 46 46 47 48 49 49 49 48 47 43 39 40 41 42 44 44
40 46 46 42 43 44 44 46 46 48 50 51 53 54 54 56 56 56 56 56 57 59 58 56 54 54 53 53 52 51 51 52 51 47 47 48 45 44 45 45 45 45 45 45 46 46 45 44 42 41 42 43 42 39 39 40 40 40 42 45 47 48 48 48 49 48 49 50 49 48 48 49 50 50 50 49 48 46 43 41 41 41 42 43 44
46 48 47 41 43 45 46 48 48 49 50 51 53 55 56 60 63 62 61 60 60 61 62 62 60 60 59 57 57 55 53 55 55 51 49 49 48 47 46 45 44 43 45 47 46 46 47 48 47 45 44 45 44 41 42 45 45 44 45 46 49 51 51 51 51 51 52 52 50 50 50 50 51 51 50 48 46 45 43 43 43 42 42 44 46
51 52 49 43 46 49 50 51 50 51 52 52 52 52 54 60 66 66 65 64 63 61 60 63 64 64 64 62 61 60 57 57 59 58 55 53 52 51 50 49 48 47 47 47 48 49 50 51 52 50 49 50 49 47 48 49 51 53 53 52 53 54 55 54 53 54 54 53 51 51 51 51 52 51 49 46 44 45 45 43 43 43 42 43 45
54 54 51 48 50 52 52 52 51 52 53 52 53 51 50 57 64 67 67 68 67 64 62 61 62 65 67 66 64 62 61 62 64 64 62 60 58 58 59 60 59 56 51 49 50 53 54 55 56 56 56 57 56 54 55 55 56 56 56 55 56 56 56 55 55 55 54 55 55 54 53 53 52 49 46 43 44 47 46 45 45 44 43 43 44
62 59 56 54 55 55 53 51 51 51 52 53 54 51 52 60 68 70 71 71 69 66 64 60 60 66 70 69 67 64 63 65 69 67 65 64 63 63 66 68 66 59 53 52 53 55 57 58 60 60 59 60 59 58 58 58 58 57 57 57 57 57 56 58 59 58 57 56 55 53 52 50 49 49 47 43 44 48 51 50 48 46 45 45 44
67 64 61 60 60 59 56 53 52 52 52 55 55 55 58 66 71 71 71 70 68 67 66 65 66 68 68 70 70 68 66 70 74 72 70 70 70 69 69 69 69 63 57 56 56 56 58 60 61 62 63 63 63 62 61 61 60 59 58 57 57 58 59 60 61 59 56 54 50 49 49 47 48 51 50 45 45 50 53 51 47 46 46 45 44
72 71 70 68 66 64 61 58 56 54 55 58 59 58 59 63 65 64 62 63 65 68 68 68 68 68 67 70 72 70 71 76 78 77 77 76 74 72 69 68 68 66 61 59 58 57 58 59 59 60 64 65 65 65 65 64 61 59 57 56 57 58 58 57 55 53 53 51 48 50 53 50 48 50 49 45 46 48 48 47 45 45 44 43 43
78 78 78 75 72 70 66 62 61 59 59 61 60 57 58 62 63 59 58 63 67 69 69 66 65 66 69 72 73 73 76 79 79 79 79 75 70 69 70 69 68 68 66 64 63 62 61 61 59 58 62 65 66 66 66 64 61 58 56 56 56 56 55 54 52 50 50 48 47 52 58 54 49 49 48 46 47 47 46 45 44 43 43 43 45
81 83 82 79 76 74 70 68 66 64 63 62 59 57 57 62 62 58 60 68 70 68 66 64 63 64 68 72 74 76 80 79 77 79 80 76 71 69 69 68 67 68 71 70 69 68 67 67 64 61 63 67 68 67 66 62 58 56 55 55 55 54 52 51 49 47 46 45 47 53 58 55 51 50 48 47 47 46 45 45 44 43 45 47 49
78 80 81 80 79 78 76 74 73 70 68 65 61 58 58 60 62 61 65 69 67 66 66 63 62 63 67 70 73 78 82 78 74 76 77 76 75 72 68 65 62 61 64 66 63 62 63 64 64 64 66 70 70 68 63 57 54 55 54 53 52 51 50 49 47 45 43 44 49 54 55 53 51 50 48 47 46 46 45 46 46 46 48 50 52
77 77 77 78 79 79 79 79 78 74 70 68 66 66 66 65 65 65 67 66 65 70 73 67 62 65 69 68 71 77 79 77 76 75 69 65 72 77 74 70 66 64 65 64 60 60 62 63 64 66 68 70 69 63 57 53 53 53 52 50 50 50 50 50 49 50 49 50 53 55 54 52 50 50 50 49 48 47 48 49 49 50 51 52 54
66 69 73 74 73 74 76 79 79 77 74 72 72 75 76 71 68 66 65 64 67 75 80 73 65 66 67 64 67 74 77 76 74 70 57 48 59 76 79 74 71 70 68 66 64 63 64 62 62 64 64 62 59 55 52 52 52 51 50 51 52 52 51 52 54 57 58 56 55 55 54 53 52 52 52 52 50 49 51 54 55 55 55 55 55
58 57 60 64 66 67 70 75 78 79 79 74 69 74 76 72 70 67 59 58 66 73 76 73 69 65 63 64 71 76 74 66 58 52 42 32 41 63 74 73 71 69 67 67 67 65 64 63 62 59 55 53 51 50 50 51 53 55 57 59 60 57 55 59 63 65 64 59 56 57 58 56 56 57 58 60 62 60 57 59 61 60 59 60 59
Wind_Speed
12 11 10 10 9 8 7 7 7 8 7 7 6 6 5 4 5 6 6 6 4 3 3 3 3 8 11 7 5 5 3 2 4 8 11 12 13 10 11 12 12 11 13 13 10 10 9 7 7 6 7 7 9 10 10 11 11 11 10 10 10 10 11 11 11 11 10 11 11 11 11 11 11 11 10 10 12 13 12 13 13 12 11 11 11
12 11 9 8 8 6 6 7 9 10 9 7 6 6 5 4 5 6 5 4 3 2 3 3 6 12 9 7 7 5 3 4 8 11 10 10 10 9 11 12 13 11 11 12 10 9 9 8 7 6 5 6 8 9 9 10 11 11 10 9 9 9 10 10 10 10 10 10 10 10 10 10 10 10 10 11 12 12 11 12 12 12 11 11 11
11 9 8 6 6 6 7 8 8 9 9 7 5 5 5 4 4 4 3 3 2 2 4 5 9 14 10 7 6 6 5 3 4 6 7 9 9 10 13 13 13 12 10 12 11 9 9 8 7 6 5 5 8 8 8 8 9 9 9 9 8 8 9 9 9 9 9 9 10 10 9 9 9 9 10 11 11 11 11 12 11 11 11 11 11
10 9 7 7 6 7 8 7 6 7 8 7 4 4 4 2 2 2 1 2 2 3 5 6 8 10 7 8 8 5 4 4 5 7 9 9 9 11 15 14 13 12 10 11 11 9 9 9 8 7 5 5 6 7 7 7 7 8 8 8 8 7 8 8 8 8 9 9 9 9 8 8 8 8 9 10 10 10 10 11 10 10 10 10 11
11 9 6 5 4 4 6 5 4 5 6 6 5 4 4 2 1 1 2 2 4 5 6 8 9 5 2 6 10 8 4 2 4 6 9 10 11 14 14 13 13 13 11 11 10 9 9 8 8 8 6 4 4 6 6 5 5 6 6 6 7 7 7 8 8 8 8 9 8 8 8 8 7 8 8 8 9 9 9 10 10 10 10 10 11
7 7 5 4 3 3 4 4 4 5 5 5 5 4 5 2 2 3 4 3 4 6 7 10 10 6 3 5 9 10 7 4 6 6 9 13 13 14 14 12 13 12 12 11 10 10 8 8 8 8 7 6 5 5 5 3 1 3 4 4 6 7 7 7 7 7 8 8 8 8 8 8 7 7 7 7 8 8 8 8 8 9 9 9 10
5 5 4 3 3 4 5 6 6 6 5 5 5 3 4 4 3 4 3 3 5 6 7 9 9 7 4 3 7 10 10 8 8 8 9 12 12 14 14 11 11 11 13 11 10 10 9 9 9 7 7 7 6 6 6 4 2 2 3 4 5 6 8 8 7 6 6 7 8 8 8 8 7 7 6 6 7 7 7 7 7 8 9 9 9
3 2 3 3 5 6 7 6 6 5 4 4 5 3 4 4 3 3 3 4 5 7 8 8 9 8 6 6 8 9 10 10 9 10 10 11 13 14 13 12 11 11 12 11 10 10 10 10 9 8 9 8 7 7 7 5 4 4 4 5 5 6 6 7 8 7 6 6 6 7 7 7 7 7 6 6 6 6 6 6 6 7 7 8 8
3 2 4 6 7 7 7 6 5 4 4 5 6 5 6 4 3 3 2 4 6 7 7 8 8 9 9 10 11 10 11 11 11 11 10 13 14 14 12 12 12 11 11 11 10 9 9 9 9 8 10 10 10 10 8 6 5 4 4 6 6 7 7 7 8 8 7 6 6 7 7 6 6 6 6 6 6 5 5 5 5 6 6 6 7
5 5 6 8 8 7 8 7 5 4 4 6 6 7 6 4 3 3 3 5 6 7 7 8 9 12 14 12 11 12 13 12 11 11 11 13 15 14 14 13 11 11 11 10 9 8 9 10 10 9 10 11 11 12 10 7 6 5 4 5 6 7 8 9 9 8 7 6 6 7 7 7 7 6 5 5 5 5 4 4 4 5 5 5 5
7 6 7 9 8 7 7 8 6 5 6 6 6 6 6 5 4 4 5 6 5 6 6 8 10 14 17 15 12 12 14 13 12 11 12 12 13 14 14 14 12 11 11 11 10 10 11 11 10 10 9 10 11 11 11 10 8 7 5 4 4 5 5 6 4 5 6 5 4 5 5 6 7 6 5 4 4 4 4 4 4 4 4 4 4
7 6 7 7 6 5 6 7 6 6 7 7 6 5 6 6 5 4 7 7 5 4 5 7 13 16 18 17 14 12 12 13 13 12 12 12 12 12 13 14 14 13 11 11 12 12 13 11 10 10 9 9 10 10 10 11 9 7 6 5 4 4 3 3 2 0 1 2 2 3 4 4 5 5 5 4 3 3 3 4 4 4 3 3 3
8 7 6 5 5 5 6 7 6 6 7 8 7 5 6 6 6 7 8 8 6 5 6 9 13 16 16 16 16 13 11 12 13 13 12 13 12 11 11 12 13 14 13 11 13 13 12 11 9 9 9 8 9 9 9 9 7 6 6 6 5 4 3 2 2 3 4 2 0 1 2 3 3 4 5 5 3 2 1 2 4 4 3 3 3
10 9 7 6 7 7 7 6 6 6 6 8 9 6 6 7 7 9 8 8 7 7 8 7 7 11 13 13 12 12 12 12 12 12 12 12 11 10 10 11 11 11 12 12 12 10 10 10 8 7 8 8 8 8 8 7 7 6 6 6 5 3 2 3 3 3 4 4 4 4 3 1 3 3 3 3 2 1 1 1 2 3 3 3 3
12 11 9 8 7 7 6 5 5 6 6 8 9 7 7 7 8 9 8 8 8 8 8 6 5 10 13 8 4 6 8 9 9 8 8 10 10 9 9 10 10 10 10 11 10 8 9 10 8 8 7 8 7 6 6 7 7 7 5 4 4 2 1 2 2 3 4 5 5 6 5 3 1 1 2 1 1 1 1 1 0 0 2 3 3
13 11 9 7 7 8 7 6 5 5 5 7 7 7 7 7 8 8 9 10 9 7 7 6 8 9 7 4 3 4 3 4 5 4 5 8 9 9 8 8 9 10 9 9 9 8 9 9 7 8 8 7 6 5 5 6 5 5 4 2 3 2 1 2 2 2 4 4 3 4 4 3 3 3 1 1 1 1 1 1 0 1 1 1 2
13 11 9 8 7 8 8 7 6 6 6 6 7 7 8 7 7 7 9 11 11 10 8 8 9 7 5 4 4 2 2 6 7 5 5 6 8 8 8 8 10 9 8 8 9 8 8 8 6 7 8 8 6 5 4 4 3 1 1 1 1 1 0 1 1 0 2 3 2 2 3 3 3 4 4 4 2 1 1 1 0 1 2 2 1
12 11 10 10 10 11 10 8 8 8 8 6 6 8 8 7 7 7 9 10 12 13 11 10 9 6 6 6 4 4 9 9 5 3 4 6 7 8 8 10 10 9 9 9 10 9 8 8 7 8 9 8 7 6 5 5 4 5 6 6 6 6 5 3 3 2 1 3 3 3 2 2 4 5 6 6 6 3 2 1 1 2 3 4 3
10 10 10 10 13 13 10 9 11 12 11 9 9 9 9 8 8 8 9 10 12 14 14 12 9 7 7 7 8 12 16 12 6 4 3 4 7 9 10 10 10 10 10 11 11 12 11 10 10 10 11 10 9 9 8 8 9 9 10 11 10 10 9 8 7 6 5 5 5 5 3 1 2 4 6 7 8 6 4 4 4 4 4 4 4
11 11 10 11 13 10 8 11 14 13 10 10 10 10 9 9 9 8 8 9 9 12 14 13 12 11 9 9 11 14 15 15 14 11 5 3 5 7 10 12 11 10 11 12 13 13 13 13 12 11 11 11 11 11 11 11 12 13 13 14 13 13 12 11 10 10 10 11 12 11 8 5 4 2 2 4 6 7 7 7 7 7 6 6 7
13 11 10 11 11 9 12 15 15 12 11 12 12 11 11 11 10 9 9 10 8 9 11 12 12 12 10 10 11 14 15 14 16 16 10 6 4 3 7 10 10 12 14 14 13 12 12 11 11 10 10 11 11 12 12 13 14 15 15 15 15 15 14 13 13 12 13 14 14 13 12 11 9 6 5 4 3 0 2 4 3 3 5 6 7
13 12 12 11 10 10 14 15 14 13 15 16 14 13 13 12 10 10 11 11 10 10 11 11 10 10 10 11 13 15 13 10 14 17 12 8 6 6 10 11 9 11 15 17 16 14 12 12 12 12 12 12 13 13 14 15 15 16 16 15 15 15 14 13 13 12 12 12 12 12 12 12 11 11 10 9 8 7 6 6 6 5 5 4 4
12 13 14 13 12 10 11 14 15 16 17 16 14 14 14 13 13 12 12 11 11 11 11 10 9 9 9 10 13 14 11 11 16 17 12 9 8 7 10 14 13 14 16 17 17 16 14 14 15 15 15 15 15 15 15 15 16 15 15 15 14 14 14 13 12 11 11 11 11 12 11 11 11 11 10 10 9 9 8 7 7 7 6 5 5
12 12 13 14 14 12 11 14 17 17 17 15 14 15 15 15 15 15 15 13 13 13 12 12 11 10 9 9 11 11 12 16 19 20 19 18 14 9 11 14 11 13 17 15 14 13 14 14 14 14 14 14 14 13 14 14 14 13 13 13 13 13 13 12 12 11 11 11 12 12 11 11 11 10 10 9 9 8 8 8 7 7 7 6 6
14 14 13 14 14 13 12 14 16 15 16 16 16 15 14 15 15 15 15 14 14 13 12 12 12 12 11 11 12 12 14 19 21 23 24 23 18 12 12 14 11 13 17 16 14 13 12 12 12 12 12 12 11 11 12 13 13 12 11 12 12 13 13 13 13 12 12 12 12 12 11 10 10 10 9 8 8 8 8 8 8 8 8 7 8
16 15 15 15 14 14 14 14 15 15 16 16 16 15 14 15 14 14 14 15 15 15 13 12 13 13 13 12 14 15 17 20 22 25 25 22 19 16 13 12 13 15 15 15 17 14 10 10 10 9 9 10 11 11 12 14 14 13 12 12 13 14 15 15 15 15 15 14 14 13 12 11 10 10 9 8 8 7 7 8 8 8 8 8 8
16 16 17 17 16 16 16 15 16 16 17 17 16 16 16 16 15 14 14 15 16 18 17 16 15 16 16 14 14 15 16 18 21 24 25 20 18 20 19 13 8 9 10 12 15 15 15 13 7 6 8 10 11 11 12 14 15 14 12 12 14 15 16 17 17 17 17 16 15 15 14 13 12 12 11 10 9 9 8 8 8 8 8 8 8
18 17 17 17 18 18 18 16 15 15 16 16 16 17 17 17 17 16 16 16 17 17 17 17 16 16 18 18 17 16 15 15 17 18 17 14 14 21 23 18 11 5 4 7 9 12 16 15 7 4 6 9 9 10 10 11 13 14 12 12 13 14 15 16 17 17 17 16 15 15 14 14 14 13 13 13 12 12 11 10 10 9 9 9 9
17 17 17 18 18 18 17 17 16 15 15 15 16 16 17 17 17 17 16 16 17 17 16 15 14 14 15 17 18 18 17 15 12 10 10 10 13 17 17 17 16 9 3 4 4 7 12 12 9 6 5 6 7 7 8 9 11 12 11 10 11 13 14 15 16 17 18 17 15 14 14 14 14 14 14 14 13 13 13 12 12 11 11 11 10
16 17 17 17 17 17 17 17 17 16 16 16 16 17 17 18 18 17 17 17 18 17 16 15 15 15 15 15 15 15 15 14 13 11 11 12 11 11 13 17 18 15 10 6 4 8 13 11 9 10 8 6 6 6 6 6 8 9 9 9 10 12 13 13 14 15 16 18 17 16 15 14 14 14 14 14 14 14 14 14 14 13 12 12 12
17 17 16 16 17 17 17 17 17 17 17 17 17 17 18 18 17 17 17 18 19 17 15 15 16 16 16 15 14 14 13 13 13 12 11 11 11 10 9 17 22 21 20 14 5 7 13 13 11 11 11 9 6 6 5 4 5 7 7 8 9 10 11 11 11 12 13 15 16 16 17 16 15 17 17 16 16 16 16 16 16 15 14 14 13
16 16 15 15 16 16 16 18 18 18 17 17 17 18 18 18 18 17 16 16 17 16 15 14 14 15 15 14 14 13 12 12 12 11 11 11 11 12 11 17 23 23 23 20 10 7 12 14 13 13 12 11 7 5 4 2 2 4 4 5 6 7 8 8 9 9 9 11 12 13 14 15 15 17 19 19 19 20 20 19 17 16 15 15 15
16 15 14 14 14 14 16 17 17 17 16 16 16 17 18 17 16 15 14 14 15 15 15 13 13 14 14 14 13 11 10 10 9 8 8 10 13 14 14 18 22 20 19 19 15 11 11 12 14 14 13 12 8 4 3 3 3 3 3 3 4 4 5 6 7 7 7 7 10 10 10 12 13 15 17 19 20 21 22 21 19 17 15 14 15
15 14 13 13 13 13 14 15 14 15 15 15 15 16 16 16 15 15 15 15 15 15 15 14 13 12 13 13 12 10 9 9 10 9 8 11 15 17 17 17 19 17 14 16 17 13 11 12 13 13 12 11 10 7 4 2 4 6 6 6 6 5 3 3 5 6 5 6 8 9 9 11 13 14 15 17 19 21 22 21 20 18 16 16 17
14 13 12 12 12 12 13 13 13 14 14 13 13 15 15 14 14 16 15 14 14 14 14 13 11 10 10 10 10 9 8 9 12 12 11 12 14 17 18 17 18 17 14 14 15 15 14 12 12 11 10 11 12 10 6 2 2 6 8 8 8 7 6 2 3 4 5 7 9 10 10 9 11 13 15 17 19 22 24 22 20 17 16 16 18
14 13 11 12 12 12 13 12 12 12 13 12 11 13 14 12 12 13 13 12 12 11 12 12 10 9 8 8 8 8 8 8 9 9 8 9 10 12 15 15 15 15 13 11 13 16 17 14 13 11 8 10 12 11 9 5 2 4 5 6 7 6 4 2 2 4 6 9 10 11 11 10 9 10 14 17 19 23 25 23 20 18 16 15 16
15 12 11 13 12 12 13 12 12 12 12 11 9 10 11 10 10 10 10 10 9 8 10 10 9 8 6 6 7 7 6 6 7 6 6 7 8 9 10 11 13 13 13 11 11 15 17 16 16 13 9 9 10 10 12 9 5 5 4 5 6 5 3 1 3 5 8 10 10 11 10 9 9 10 13 17 21 25 25 21 19 18 17 14 15
16 13 11 13 12 12 12 12 12 12 12 11 11 11 11 9 9 9 9 9 8 7 9 9 8 8 8 8 9 8 6 5 5 6 7 7 9 11 11 10 10 11 12 12 9 10 15 17 18 17 12 10 7 8 11 9 5 7 8 9 9 6 3 2 3 4 7 10 10 10 9 8 9 11 15 18 23 26 23 18 17 18 16 15 14
14 12 11 12 11 11 11 12 14 15 14 14 13 14 14 11 11 10 10 11 10 9 9 9 8 8 9 10 10 10 9 7 6 7 7 6 8 11 12 11 9 8 8 8 7 7 9 11 13 14 12 8 7 9 10 8 5 5 7 9 8 3 2 3 4 6 8 9 9 10 8 7 9 12 17 22 25 24 20 17 18 17 16 15 15
12 11 12 13 11 12 12 13 15 16 16 16 14 14 15 13 12 13 13 13 12 11 9 9 9 8 9 10 9 10 11 9 8 8 7 6 5 7 9 9 8 6 4 5 5 4 3 3 4 7 8 5 5 7 8 6 4 5 5 5 4 2 3 5 6 6 7 6 7 8 9 9 11 15 20 24 23 19 17 17 17 16 15 15 15
14 13 14 14 13 13 14 13 14 14 14 15 14 14 14 12 10 11 12 12 12 12 11 11 11 9 9 10 10 11 12 11 10 10 9 7 6 6 7 7 6 4 3 5 5 2 0 2 3 2 3 4 2 5 5 2 3 5 4 2 1 0 2 4 5 4 4 6 8 10 10 12 17 21 22 21 17 15 15 14 14 16 17 16 16
13 14 15 15 13 14 15 12 11 11 10 11 12 12 13 12 10 9 10 11 11 11 11 11 12 12 12 12 11 11 13 13 11 10 10 9 7 6 7 6 5 4 5 6 5 2 1 4 5 4 5 7 6 3 4 5 4 5 4 2 1 1 4 7 7 5 6 9 12 15 17 18 20 21 18 17 16 15 12 12 14 16 16 15 15
9 10 12 12 11 12 13 13 11 10 9 8 9 10 12 12 10 9 10 10 10 10 11 12 13 13 13 13 13 13 14 15 13 11 11 10 9 8 7 6 6 6 7 7 6 3 2 4 5 5 5 8 7 6 7 7 6 4 2 1 2 4 6 7 8 9 10 13 15 19 21 18 17 17 17 17 18 16 13 13 14 13 13 14 16
7 7 8 9 9 10 11 12 13 13 11 10 10 10 12 12 10 9 9 9 9 9 11 12 12 12 12 13 14 14 15 16 15 13 11 10 9 9 8 8 8 8 8 7 6 4 3 2 4 5 5 6 6 5 5 4 3 1 2 4 5 5 6 7 8 12 14 15 17 20 20 17 15 16 16 16 15 13 12 13 13 14 15 17 19
7 7 7 8 8 9 10 11 13 13 13 12 12 12 13 14 12 10 10 11 11 11 12 11 11 11 11 12 14 15 14 14 13 12 10 9 8 8 8 9 9 9 8 8 7 6 5 3 2 2 2 3 3 3 2 0 1 3 6 7 8 8 9 10 11 14 16 15 16 20 21 17 14 13 14 13 11 11 11 13 15 17 19 19 19
8 8 8 8 8 9 10 11 11 13 13 12 12 14 16 16 14 12 12 12 13 13 13 12 11 11 11 12 13 14 13 11 10 10 9 8 7 6 7 8 9 10 10 9 9 9 8 7 5 4 4 4 4 3 3 4 5 7 9 10 11 11 12 12 13 15 15 13 15 18 17 14 13 13 13 14 12 12 13 14 16 17 17 17 17
8 9 9 9 10 10 11 12 12 12 13 13 13 13 14 15 15 14 13 13 13 14 12 10 9 9 10 11 12 13 13 11 11 11 11 10 8 7 7 7 8 8 8 8 8 8 8 8 7 6 6 5 4 3 4 6 8 10 11 11 12 12 12 12 12 13 13 12 13 14 14 14 14 13 13 14 15 16 16 16 15 14 13 14 16
7 8 9 10 11 11 12 13 13 13 14 15 15 14 14 14 14 14 14 13 14 13 9 8 7 8 9 10 12 14 13 12 12 11 11 12 10 9 9 8 7 6 5 4 4 3 3 4 4 4 6 5 4 4 6 8 10 11 11 12 12 11 11 11 11 12 13 12 11 13 14 14 13 14 16 17 17 18 18 15 13 12 14 16 17
7 9 9 10 11 11 12 13 14 15 16 16 17 17 16 15 14 14 13 13 13 12 9 9 9 9 9 10 13 15 14 13 13 11 10 11 11 11 11 10 8 7 7 6 5 4 3 3 4 5 6 6 6 7 9 11 11 10 10 10 9 8 8 9 9 11 13 12 10 12 14 14 15 18 20 20 20 20 18 16 14 15 18 18 18
6 7 9 10 10 11 13 14 15 16 16 16 17 17 16 15 14 13 14 14 13 12 11 11 11 11 11 11 14 17 17 15 14 12 10 10 11 11 13 14 12 10 9 9 7 5 4 3 5 6 6 6 7 8 8 8 8 7 8 8 7 7 7 8 9 11 13 12 11 13 16 17 18 20 20 20 21 20 16 15 15 16 17 18 19
6 6 7 9 10 11 13 13 14 15 15 14 15 16 15 15 15 15 16 15 12 11 13 15 15 15 14 14 16 18 18 16 14 11 10 10 11 10 11 14 14 11 9 8 6 5 4 3 3 2 2 3 4 5 5 6 7 8 9 9 7 7 8 8 10 11 9 9 12 16 17 16 15 15 15 14 12 11 11 13 15 17 19 20 21
Wind_Direction
194 192 183 182 189 195 198 203 209 211 211 209 207 215 236 247 254 268 273 272 270 287 337 64 75 35 31 20 335 307 216 141 91 142 141 124 122 134 145 146 149 145 143 148 148 145 138 127 129 135 119 96 97 103 102 104 102 99 96 93 93 94 97 97 97 97 95 96 98 99 97 96 96 93 90 93 95 93 91 88 85 85 84 82 84
195 187 183 186 192 200 208 212 214 218 220 218 213 225 247 241 247 270 269 274 273 299 3 41 33 39 39 16 15 28 49 48 63 92 113 120 124 149 165 158 156 156 148 147 148 145 141 132 130 142 145 114 98 98 101 102 97 93 89 87 90 91 94 97 96 96 95 97 96 95 97 96 94 92 89 93 96 93 90 89 87 85 80 79 82
204 191 186 186 192 209 219 216 211 213 220 221 211 218 242 239 239 264 272 309 328 355 33 38 38 50 48 21 34 54 68 120 132 132 153 158 158 166 171 166 160 162 152 145 149 150 147 138 132 140 152 132 105 90 93 100 94 87 82 81 86 93 98 99 98 98 99 98 95 93 94 94 93 92 91 94 97 97 95 91 88 87 83 81 83
208 199 196 190 195 220 221 214 211 210 213 214 210 209 225 233 235 247 277 6 44 51 42 52 49 51 49 38 46 63 101 154 168 173 180 173 168 164 167 170 166 168 161 149 151 156 152 141 134 133 139 153 122 88 88 99 93 84 79 78 83 94 102 102 102 101 103 103 99 96 95 96 96 97 98 97 97 100 103 98 92 92 90 87 86
204 200 200 197 200 231 226 216 215 218 215 207 201 202 199 168 159 175 133 101 78 64 59 67 57 47 55 45 50 67 91 163 155 159 176 171 164 161 167 174 173 174 169 157 157 160 156 145 137 134 132 148 123 82 82 95 97 89 76 76 83 92 101 103 105 106 108 108 104 100 96 98 100 102 101 99 100 101 106 103 97 97 95 92 89
204 201 198 199 200 215 216 213 214 220 225 213 201 195 193 170 104 130 124 98 71 65 68 72 70 72 86 58 63 83 87 105 143 148 173 174 166 162 165 173 176 177 172 167 166 162 158 149 141 139 132 135 125 97 97 103 118 107 86 86 88 91 98 103 107 109 114 110 106 103 97 97 98 100 100 100 102 101 104 101 99 102 97 92 92
195 200 194 189 193 195 194 200 203 204 215 215 210 197 176 158 116 120 113 80 70 68 70 77 85 83 73 74 74 94 106 115 143 150 163 171 167 162 161 167 175 177 175 174 173 166 159 154 149 141 135 136 138 132 132 143 180 162 120 102 98 100 99 99 102 104 113 114 108 105 98 96 96 95 94 98 105 104 103 98 100 112 108 100 98
161 169 179 179 189 200 198 201 195 190 189 177 182 170 145 140 126 125 100 83 77 73 80 87 98 88 77 97 84 96 118 118 143 152 154 166 164 161 160 163 165 170 177 179 178 171 164 162 159 151 148 151 151 150 153 156 166 176 144 109 100 115 112 97 96 94 99 108 110 105 97 95 100 101 97 99 110 111 109 104 103 114 119 114 108
135 158 178 178 184 200 205 208 202 188 168 141 142 136 130 133 135 136 95 94 89 80 92 100 107 101 91 102 98 104 120 118 136 146 153 166 163 162 166 167 164 163 171 178 175 168 167 174 180 181 176 172 165 158 163 166 159 165 151 119 100 109 119 103 91 88 87 91 98 99 93 92 101 110 106 101 110 117 118 115 110 111 118 121 118
169 176 178 174 178 196 206 207 202 187 155 129 130 134 139 148 139 127 107 106 96 87 104 112 111 107 100 105 112 117 124 125 130 130 145 166 167 169 174 171 167 163 165 168 162 155 164 177 187 192 189 182 174 160 158 166 157 149 148 132 111 107 113 105 87 72 71 81 94 98 91 86 92 107 111 105 107 112 116 115 113 114 114 121 125
164 162 166 173 181 199 206 200 194 181 157 136 136 143 146 152 143 125 114 108 97 96 111 115 112 108 102 103 114 123 124 127 134 131 137 156 164 171 178 176 172 165 165 164 157 157 165 172 175 173 169 173 177 167 160 165 162 153 156 150 133 123 119 119 99 54 54 69 91 104 99 88 84 90 95 97 101 105 115 116 116 119 118 119 121
151 162 168 172 181 196 195 184 182 175 160 149 152 160 157 154 154 140 124 120 120 119 125 125 115 106 100 101 108 118 119 123 134 136 137 147 156 160 164 170 174 170 166 165 167 172 170 169 170 165 157 157 169 176 173 174 176 174 177 184 183 173 161 149 149 29 68 59 60 89 101 97 85 80 77 75 78 85 109 119 120 121 121 126 124
148 158 168 174 172 170 168 166 166 162 156 160 165 165 157 150 145 139 137 139 140 137 144 142 123 107 101 99 100 107 117 124 129 136 142 147 151 150 146 154 165 168 170 173 176 179 175 174 179 176 168 164 168 177 181 183 190 194 192 200 204 199 199 181 182 215 208 210 212 107 108 105 93 82 75 74 73 66 115 135 134 132 131 135 134
143 140 137 148 154 153 158 163 164 160 155 163 170 165 155 155 149 145 148 146 140 146 153 153 141 128 120 105 95 98 102 112 126 141 145 140 142 147 149 151 154 160 170 179 183 185 183 184 196 196 184 180 178 175 182 193 205 209 203 205 205 187 178 192 209 221 209 203 207 219 221 146 93 83 80 86 101 124 180 160 139 141 139 138 138
136 128 120 126 132 133 146 156 157 159 160 162 167 170 166 167 162 156 155 141 131 148 163 172 161 138 128 118 114 106 89 96 121 141 137 126 131 139 146 151 150 154 164 175 181 187 192 192 203 209 199 195 196 193 191 197 210 221 221 222 221 202 155 196 235 249 224 211 213 226 233 238 227 110 84 81 193 180 142 158 242 179 161 159 161
141 129 121 128 129 122 124 129 128 132 146 154 157 167 176 174 166 166 162 145 137 151 164 168 160 146 130 117 133 129 102 114 112 85 85 99 112 124 132 141 148 155 162 170 172 175 188 193 198 201 195 194 200 203 196 199 217 229 225 237 257 258 250 241 263 270 245 239 239 231 224 234 243 232 238 270 249 139 123 139 337 348 325 196 197
136 131 132 137 139 133 120 118 123 123 130 141 143 151 167 172 164 169 166 155 154 160 160 162 166 170 161 134 125 121 157 142 117 61 48 79 105 119 125 134 144 155 159 159 157 158 172 176 169 170 171 168 173 175 173 184 209 239 103 87 0 7 19 223 187 269 282 303 335 289 245 229 233 239 242 250 253 191 141 153 90 5 353 358 349
122 127 137 134 131 137 132 130 132 127 124 133 149 149 151 160 163 168 168 160 161 162 158 159 167 175 159 138 110 132 150 142 118 65 62 80 102 116 120 128 138 148 151 148 147 145 148 150 141 137 140 140 142 141 130 124 105 75 75 77 73 70 74 92 108 90 22 10 23 6 326 237 228 236 233 234 243 250 275 306 341 341 342 343 339
126 128 140 136 129 129 132 140 133 128 129 128 142 146 139 146 152 157 159 153 158 162 157 155 157 156 148 127 100 125 147 148 135 136 119 88 98 110 117 122 130 138 138 137 135 131 129 132 130 124 120 117 114 112 105 97 90 82 78 76 76 78 83 88 90 89 80 60 56 53 37 306 245 248 234 228 232 235 251 262 261 267 281 299 305
134 128 127 131 134 120 112 138 132 126 136 129 129 136 131 134 134 136 146 145 151 156 155 158 159 152 148 134 113 119 138 146 144 140 131 111 101 104 118 120 121 126 126 125 126 123 122 124 124 119 113 109 106 105 102 98 92 86 81 79 81 85 89 92 90 87 84 76 69 67 61 57 48 2 294 271 249 232 242 254 249 254 267 269 271
135 139 136 131 137 114 104 130 132 120 126 121 117 124 126 129 128 129 136 138 140 139 144 156 159 154 151 141 123 117 122 131 139 136 127 132 132 134 143 129 117 121 122 118 116 116 119 119 116 114 109 106 106 105 102 98 94 90 88 87 87 86 87 88 86 85 85 81 74 67 65 67 67 64 56 32 21 29 290 315 310 305 316 301 285
125 132 139 135 142 126 105 119 131 120 115 111 108 112 117 121 123 130 137 138 136 127 128 139 145 148 150 143 133 128 123 117 128 133 128 125 128 147 157 146 130 130 128 121 114 107 107 110 107 104 103 103 104 104 102 98 95 93 92 91 90 89 88 87 85 83 82 79 72 66 65 67 66 65 67 63 57 57 48 37 38 30 13 356 332
124 120 126 127 136 136 111 113 125 125 119 115 110 107 107 110 110 114 123 128 129 125 124 128 133 140 145 148 147 145 143 135 136 139 137 132 135 145 154 149 142 144 139 125 116 106 100 103 103 101 102 103 103 102 99 94 91 91 92 92 92 92 91 89 86 83 78 72 68 67 66 64 63 59 58 55 49 44 41 38 35 33 27 19 10
137 125 123 126 132 134 121 114 118 123 122 117 115 112 108 109 109 107 109 111 114 119 122 123 122 125 130 143 146 144 147 146 145 148 147 146 146 143 150 149 138 145 148 136 125 118 105 103 104 103 102 101 99 97 95 91 86 86 88 89 88 89 88 86 83 79 74 70 67 67 66 64 61 58 54 50 45 41 38 35 35 36 33 28 23
138 130 128 133 137 138 131 117 110 115 120 115 115 117 114 114 114 112 109 106 106 109 115 119 115 112 117 127 128 125 136 145 149 151 150 149 148 143 147 148 135 142 150 144 139 130 112 106 103 95 94 94 93 92 92 90 85 81 81 83 83 82 81 77 75 72 69 67 66 65 64 63 61 59 58 53 47 42 37 34 32 31 29 25 21
140 137 135 135 135 139 138 125 110 109 119 121 118 116 114 112 113 114 110 104 100 98 104 118 113 99 99 114 125 124 131 144 149 151 152 150 149 148 143 139 137 144 150 147 143 136 126 122 107 85 81 86 90 94 94 89 84 79 76 79 80 79 76 73 69 66 63 60 58 57 56 54 52 50 48 45 40 34 26 22 17 14 15 12 9
144 141 139 136 133 134 135 128 115 109 114 118 115 114 111 107 108 110 109 104 97 90 96 108 104 92 91 103 122 125 127 142 151 155 156 154 156 155 147 139 140 142 139 139 137 134 137 135 112 79 84 88 86 91 97 91 82 77 75 79 82 79 77 73 67 62 57 54 50 48 47 44 42 38 34 30 27 23 16 10 2 357 355 352 350
144 142 141 138 133 129 128 127 122 116 115 116 115 116 114 110 109 108 107 106 99 91 92 98 97 93 92 96 105 109 113 130 147 158 162 159 161 159 152 147 145 134 114 122 124 130 138 137 123 97 96 96 89 84 92 93 85 76 74 82 83 80 77 71 65 59 52 47 44 42 39 37 35 33 29 25 22 20 16 11 6 359 352 346 342
146 143 140 137 135 133 130 129 128 123 120 120 122 122 119 118 115 111 110 110 103 97 96 98 98 98 96 95 98 99 102 110 121 144 155 148 153 162 166 159 144 133 124 124 124 140 146 143 140 145 128 105 100 91 85 87 88 79 73 86 87 77 75 71 65 59 49 44 44 42 38 33 31 29 26 23 20 16 14 11 8 3 358 352 347
146 143 141 140 139 137 133 131 129 126 123 121 122 122 118 116 115 113 113 114 109 104 104 104 102 100 98 98 99 98 98 98 96 110 127 124 127 147 176 180 160 145 140 133 125 148 155 154 147 152 158 142 121 110 89 71 86 86 77 90 92 77 73 70 63 57 49 44 45 44 39 34 31 27 21 16 13 9 5 2 359 357 355 352 348
146 145 145 143 140 137 134 134 131 128 128 125 124 123 120 117 118 119 117 116 114 110 109 109 106 104 101 98 99 96 92 91 88 92 105 111 107 101 141 177 170 153 141 131 114 146 158 163 154 149 155 154 139 121 102 67 81 97 93 98 98 81 72 67 59 54 47 41 39 39 36 37 37 33 27 22 15 10 2 356 350 347 345 344 344
149 148 147 143 141 140 138 137 135 133 131 128 126 124 123 122 120 121 121 118 115 113 113 114 114 114 110 103 102 99 98 98 92 88 93 103 106 94 111 153 156 148 139 127 112 124 145 155 157 156 159 157 150 136 125 115 89 105 117 118 114 93 72 64 54 46 42 34 29 26 26 29 32 30 29 28 22 16 8 0 352 344 339 339 341
153 150 148 145 143 143 141 139 136 136 135 133 132 129 126 126 126 127 128 126 123 121 119 119 123 123 117 112 110 106 108 106 90 83 95 102 108 108 119 138 141 143 142 130 122 122 132 143 152 161 168 166 164 164 151 163 176 172 193 198 169 133 84 66 47 34 31 24 17 13 12 14 15 17 21 23 20 14 8 3 359 354 349 347 347
155 151 151 150 147 144 142 142 141 142 140 138 141 140 134 133 138 139 137 135 134 133 130 125 128 129 124 122 119 109 106 104 90 84 98 106 109 115 127 139 141 145 150 141 136 139 145 151 156 166 176 179 183 190 185 177 191 206 227 236 217 204 176 88 48 29 19 9 3 359 356 0 5 7 11 14 12 9 3 358 357 357 355 353 350
157 156 156 155 156 154 149 148 149 145 142 142 147 149 142 136 139 144 144 142 139 140 140 135 131 134 134 132 129 119 111 105 97 91 96 105 105 109 121 136 144 147 149 148 147 153 160 163 171 180 185 191 197 198 201 203 182 205 228 242 234 220 204 166 45 26 11 359 354 349 343 349 359 0 2 5 4 -0 356 350 346 346 346 345 344
162 162 164 163 163 164 160 155 155 151 147 147 148 149 145 138 138 143 145 144 140 141 146 144 140 138 132 130 134 132 124 113 103 95 96 107 110 113 119 126 133 135 140 153 160 164 165 167 178 186 183 188 199 207 209 206 180 195 223 234 224 211 198 198 32 25 7 353 348 346 339 339 352 357 356 356 353 350 349 345 339 333 330 332 336
170 166 167 170 170 170 168 163 161 159 155 151 148 145 146 146 144 142 141 140 133 132 138 137 139 139 130 129 138 139 130 120 117 118 115 115 123 138 139 131 128 123 125 142 162 172 175 174 180 188 183 178 194 211 206 195 188 193 171 143 146 135 131 114 38 16 356 347 346 349 343 337 347 351 348 348 345 342 341 340 336 328 319 317 324
173 171 171 173 173 174 175 173 170 167 162 160 163 158 154 155 154 148 146 145 136 129 133 135 140 145 145 148 149 149 143 133 137 144 138 122 124 142 154 152 145 132 124 125 133 161 177 178 182 190 190 184 186 194 195 192 188 181 160 142 137 129 123 84 33 2 342 338 337 342 342 336 340 341 342 341 336 333 334 335 333 328 319 311 313
173 175 177 175 176 180 183 182 178 176 174 173 174 170 164 162 158 157 158 158 156 149 143 145 152 155 159 162 160 161 160 156 160 163 156 137 123 132 146 153 152 141 126 120 113 125 152 165 177 185 188 189 182 171 179 195 202 184 174 173 175 183 262 295 319 325 326 325 325 331 334 333 334 334 333 330 326 326 329 328 328 330 327 318 312
188 191 187 181 183 183 182 182 179 179 182 183 183 177 168 159 154 161 169 173 175 171 163 166 174 178 184 186 178 174 174 173 176 184 185 175 155 143 147 155 159 145 122 128 133 130 131 124 155 183 183 185 200 191 186 188 183 187 201 205 208 264 290 293 310 324 323 317 315 319 321 326 327 323 321 320 320 324 324 322 325 331 335 331 323
201 198 187 185 189 184 177 176 177 181 186 189 192 190 183 174 167 172 181 189 196 195 191 194 201 208 215 214 204 193 191 187 183 190 198 198 196 187 175 176 185 184 160 152 151 160 204 61 68 126 144 117 161 218 206 164 132 152 167 177 170 236 285 299 320 334 322 311 311 305 301 309 314 313 315 319 323 326 323 322 325 327 329 331 331
193 192 186 190 197 191 185 184 183 187 192 193 199 203 200 197 194 192 197 205 211 211 210 213 220 229 236 236 229 215 207 199 188 188 197 200 201 197 191 193 199 198 184 174 171 169 108 87 79 68 76 88 100 137 136 120 132 142 133 125 118 326 315 317 321 316 305 309 313 306 301 307 313 314 320 328 329 325 321 320 320 320 323 328 331
173 179 187 193 193 188 192 199 203 208 213 213 212 213 212 207 200 196 203 215 223 224 227 233 235 238 242 245 243 232 220 211 200 189 190 197 202 202 202 202 199 191 185 185 190 188 138 106 98 93 97 104 109 119 124 128 143 143 105 28 348 337 330 329 323 310 307 315 318 311 308 315 322 319 323 331 330 322 315 315 320 326 330 332 330
181 182 191 197 194 192 199 208 216 222 226 229 227 221 214 207 205 207 212 224 236 238 239 241 241 243 245 244 240 230 219 214 206 197 197 209 219 220 217 211 199 191 190 193 199 205 195 145 107 101 116 126 127 136 140 136 144 139 347 341 341 336 328 326 319 312 316 323 321 313 312 322 328 322 325 336 339 332 323 321 330 337 336 334 330
212 210 206 204 201 204 208 213 222 227 228 232 232 228 223 219 225 235 237 240 246 249 251 248 246 247 242 234 228 219 209 206 202 198 205 218 226 221 212 209 207 205 206 208 213 221 225 214 165 124 145 171 173 181 195 206 331 331 334 335 334 331 325 322 318 317 321 327 325 316 314 324 333 328 330 341 347 345 338 334 337 339 337 336 331
226 218 217 216 215 220 222 225 230 234 236 236 233 234 235 235 241 249 248 249 251 253 254 253 252 245 229 222 219 206 193 189 189 185 183 184 186 184 186 198 210 217 224 229 232 237 243 247 252 251 247 248 242 240 260 291 316 327 330 330 328 323 319 315 313 315 319 324 324 319 316 325 335 331 329 334 336 334 334 335 337 338 338 339 337
236 233 231 229 230 233 236 240 241 241 243 238 234 239 241 237 240 245 249 251 250 247 245 243 240 227 212 209 206 193 180 176 182 182 176 172 166 161 169 185 202 213 223 231 237 247 252 254 259 251 236 234 235 243 280 305 319 326 327 325 320 312 308 307 310 320 328 327 322 320 321 329 338 339 335 333 328 323 324 328 333 337 342 345 347
245 245 239 236 238 240 244 247 247 248 247 241 239 244 243 236 235 240 245 244 237 232 228 216 205 197 196 197 195 189 183 179 179 176 173 176 174 171 175 180 189 197 197 202 218 240 248 242 237 223 213 211 222 261 299 313 317 319 315 310 307 302 301 310 320 332 343 342 327 321 323 328 335 336 330 325 322 321 321 323 324 327 333 339 343
247 245 241 240 242 245 248 250 252 254 252 248 247 247 243 239 239 237 233 223 215 214 211 203 200 197 197 200 198 192 186 181 177 171 167 170 174 181 188 186 183 187 186 183 185 175 176 201 202 205 215 229 258 285 300 305 306 307 306 305 305 302 306 316 321 328 339 341 328 320 322 324 326 328 325 321 320 320 319 319 316 314 315 322 330
269 264 255 250 251 254 254 251 253 257 256 253 251 247 242 240 235 220 206 201 201 207 207 202 205 205 201 201 200 193 186 182 180 181 182 182 179 183 192 192 189 189 190 187 183 177 176 198 211 221 238 259 282 294 299 305 308 309 310 312 308 304 307 311 313 319 329 335 332 328 328 325 323 327 328 324 320 319 318 319 317 314 311 311 316
272 276 267 262 262 264 263 258 256 258 256 254 251 245 237 231 219 201 196 200 206 209 200 189 186 186 180 178 184 184 182 179 178 182 190 192 188 186 191 194 194 193 191 182 171 173 176 177 199 241 297 311 315 322 323 325 324 318 316 315 306 300 302 305 317 328 332 330 330 331 331 328 326 331 335 333 325 319 319 319 318 317 317 317 317